Location: Adaghas
(31.2259°N, 9.0496°W)
Time: 04:07:39
(UTC+00:00)

Cosmos 1300 Rocket - Pass Details

Date: 18 September 2020
Orbit: 602 x 626 km, 82.5° (Epoch: 23 October)

Event Time Altitude Azimuth Distance (km) Brightness Sun altitude
Rises 19:48:54 0° 178° (S) 2,862 6.8 -16.0°
Reaches altitude 10° 19:51:06 10° 175° (S) 1,965 6.0 -16.4°
Maximum altitude 19:55:24 64° 94° (E) 687 3.5 -17.3°
Drops below altitude 10° 19:59:46 10° 13° (NNE) 1,992 6.2 -18.2°
Sets 20:02:02 0° 10° (N) 2,905 7.1 -18.7°
